Flag for Mauritania Weather past 2 weeks in Rosso, Mauritania

Now
88 °F

Sunny.


Feels Like: 100 °F
Forecast: N/A
Wind: 9 mph from Northwest

Location: Saint Airport-Louis

Current Time: Jul 26, 2014 at 3:19:16 PM

Latest Report: Jul 26, 2014 at 2:00 PM


Visibility: 10 mi

Pressure: 29.92 "Hg

Humidity: 70%

Dew point: 77 °F

Location of RossoLocation

Historic Weather in Rosso — Graph

°F

Rosso temperature yesterday

Maximum temperature yesterday: 88 °F (at 1:00 PM)
Minimum temperature yesterday: 77 °F (at 3:00 AM)
Average temperature yesterday: 81 °F

Past Weeks' High & Low Weather Summary

 TemperatureHumidityPressure
High97 °F (Jul 14, 12:00 PM)100% (Jul 12, 3:00 AM)30.07 "Hg (Jul 12, 3:00 AM)
Low75 °F (Jul 20, 7:00 AM)44% (Jul 14, 12:00 PM)29.77 "Hg (Jul 14, 5:00 PM)
Average82 °F80%29.92 "Hg
* Reported Jul 11 2:00 PM — Jul 26 2:00 PM, Rosso, Weather by CustomWeather, © 2014

Note: Actual official high and low records may vary slightly from our data, if they occured in-between our weather recording intervals... More about our weather records

Advertising

Rosso weather history for previous 24 hours

 ConditionsComfort  
Time TempWeatherWind HumidityBarometerVisibility
2:00 PM
Jul 26
88 °FSunny.9 mph70%29.92 "Hg10 mi
1:00 PM88 °FSunny.9 mph66%29.95 "Hg10 mi
12:00 PM88 °FSunny.9 mph66%29.95 "Hg10 mi
11:00 AM86 °FSunny.9 mph70%29.95 "Hg10 mi
10:00 AM84 °FPassing clouds.12 mph74%29.95 "HgN/A
9:00 AM82 °FScattered clouds.9 mph79%29.92 "HgN/A
8:00 AM81 °FScattered clouds.7 mph84%29.92 "HgN/A
7:00 AM79 °FScattered clouds.5 mph84%29.92 "HgN/A
6:00 AM79 °FPassing clouds.7 mph84%29.89 "HgN/A
5:00 AM79 °FPassing clouds.7 mph84%29.89 "HgN/A
4:00 AM79 °FPassing clouds.7 mph84%29.89 "HgN/A
3:00 AM79 °FPassing clouds.7 mph84%29.89 "HgN/A
2:00 AM79 °FPassing clouds.12 mph89%29.92 "HgN/A
1:00 AM79 °FPassing clouds.7 mph89%29.92 "HgN/A
12:00 AM79 °FPassing clouds.7 mph89%29.92 "HgN/A
11:00 PM
Jul 25
79 °FPassing clouds.7 mph89%29.92 "HgN/A
10:00 PM81 °FClear.7 mph84%29.92 "Hg10 mi
9:00 PM81 °FClear.7 mph84%29.89 "Hg10 mi
8:00 PM81 °FClear.9 mph84%29.86 "Hg10 mi
7:00 PM82 °FSunny.7 mph79%29.86 "Hg10 mi
6:00 PM84 °FSunny.12 mph74%29.86 "Hg10 mi
5:00 PM84 °FPartly sunny.12 mph70%29.86 "HgN/A
4:00 PM84 °FBroken clouds.5 mph70%29.86 "HgN/A
3:00 PM86 °FBroken clouds.14 mph66%29.89 "HgN/A
Weather by CustomWeather, © 2014

See weather overviewHow to use our weather pages